Location: Unspecified
(34.4950°S, 58.5160°W)
Time: 00:34:58
(UTC+00:00)

Cosmos 1655 Rocket - Pass Details

Date: 19 April 2026
Orbit: 969 x 1006 km, 83.0° (Epoch: 12 May)

Event Time Altitude Azimuth Distance (km) Brightness Sun altitude
Exits shadow 07:47:11 52° 30° (NNE) 1,209 4.5 -32.2°
Maximum altitude 07:48:37 68° 87° (E) 1,061 4.2 -31.9°
Drops below altitude 10° 07:54:55 10° 168° (SSE) 2,771 6.6 -30.6°
Sets 07:57:29 0° 170° (S) 3,732 7.3 -30.1°
